Simultaneous Nadir Overpasses (SNOs) Predictions

Prediction of SNOs between GOES-15 and METOP-A Satellite Orbit:

Table of predicted SNOs for the next 14.0 days since TLE Epoch: 11/7/2015
Index Date Time (GOES-15) GOES-15 Lat,Lon METOP-A Lat,Lon Distance(km) Time Diff (sec)
1 11/08/2015 18:29:47 -0.27,-135.28 -0.31,-135.14 16.67 80
2 11/11/2015 06:25:31 0.27,-135.30 0.37,-134.74 64.22 80
3 11/12/2015 18:47:04 -0.25,-135.37 0.64,-139.30 448.02 80
4 11/13/2015 18:26:27 -0.26,-135.39 -0.52,-134.32 123.04 80
5 11/15/2015 06:45:28 0.24,-135.38 -0.56,-138.90 401.58 80
6 11/16/2015 06:22:11 0.25,-135.40 0.60,-133.92 168.60 80
7 11/17/2015 18:41:03 -0.23,-135.45 0.46,-138.47 345.33 80
8 11/18/2015 18:23:05 -0.24,-135.46 -0.70,-133.49 224.86 80
9 11/20/2015 06:42:07
